Location: Brantley
(31.5822°N, 86.2569°W)
Time: 19:00:40
(UTC+00:00)

Courier 1B Rocket - Pass Details

Date: 25 February 2026
Orbit: 920 x 1201 km, 28.2° (Epoch: 10 March)

Event Time Altitude Azimuth Distance (km) Brightness Sun altitude
Rises 04:16:43 0° 265° (W) 3,567 - -57.5°
Reaches altitude 10° 04:20:19 10° 245° (WSW) 2,650 - -58.1°
Maximum altitude 04:24:08 16° 207° (SSW) 2,250 - -58.7°
Drops below altitude 10° 04:28:04 10° 170° (S) 2,738 - -59.3°
Sets 04:31:53 0° 151° (SSE) 3,743 - -59.9°
